Flag for Norway Weather past 2 weeks in Jørpeland, Norway

41 °F

Scattered showers. Passing clouds.

Feels Like: 29 °F
Forecast: 37 / 46 °F
Wind: 33 mph from Northwest

Location: Stavanger / Sola

Current Time: Dec 1, 2015 at 1:47:37 AM

Latest Report: Dec 1, 2015 at 12:50 AM

Visibility: N/A

Pressure: 29.56 "Hg

Humidity: 76%

Dew point: 34 °F

Location of JørpelandLocation

Historic Weather in Jørpeland — Graph


Jørpeland temperature yesterday

Maximum temperature yesterday: 45 °F (at 1:50 AM)
Minimum temperature yesterday: 41 °F (at 9:50 AM)
Average temperature yesterday: 43 °F

Past Weeks' High & Low Weather Summary

High52 °F (Nov 16, 10:50 AM)100% (Nov 19, 10:50 PM)30.04 "Hg (Nov 19, 10:50 PM)
Low23 °F (Nov 22, 6:50 AM)52% (Nov 22, 2:20 PM)28.91 "Hg (Nov 29, 4:50 PM)
Average42 °F82%29.46 "Hg
* Reported Nov 16 12:50 AM — Dec 1 12:50 AM, Jørpeland, Weather by CustomWeather, © 2015

Note: Actual official high and low records may vary slightly from our data, if they occured in-between our weather recording intervals... More about our weather records


Jørpeland weather history for previous 24 hours

Time TempWeatherWind HumidityBarometerVisibility
12:50 AM
Tue, Dec 1
41 °FScattered showers. Passing clouds.33 mph76%29.56 "HgN/A
12:20 AM41 °FScattered showers. Passing clouds.20 mph76%29.53 "HgN/A
11:20 PM
Mon, Nov 30
43 °FThundershowers. Passing clouds.25 mph66%29.53 "HgN/A
10:50 PM43 °FSprinkles. Passing clouds.28 mph66%29.50 "HgN/A
10:20 PM43 °FPassing clouds.33 mph71%29.50 "HgN/A
9:50 PM45 °FPartly cloudy.24 mph66%29.47 "HgN/A
9:20 PM45 °FPartly cloudy.20 mph66%29.47 "HgN/A
8:50 PM43 °FPassing clouds.23 mph71%29.47 "HgN/A
8:20 PM41 °FPartly cloudy.12 mph76%29.45 "HgN/A
7:50 PM41 °FSprinkles. Partly cloudy.25 mph70%29.45 "HgN/A
7:20 PM43 °FPartly cloudy.17 mph66%29.45 "HgN/A
6:50 PM43 °FPartly cloudy.22 mph66%29.45 "HgN/A
6:20 PM43 °FPartly cloudy.20 mph66%29.42 "HgN/A
5:50 PM43 °FPassing clouds.20 mph71%29.42 "HgN/A
5:20 PM43 °FSprinkles. Partly cloudy.20 mph71%29.42 "HgN/A
4:50 PM43 °FSprinkles. Partly cloudy.14 mph76%29.42 "HgN/A
4:20 PM43 °FScattered showers. Partly cloudy.13 mph66%29.42 "HgN/A
3:50 PM43 °FScattered showers. Partly cloudy.14 mph71%29.42 "HgN/A
3:20 PM43 °FScattered showers. Broken clouds.24 mph71%29.42 "HgN/A
2:50 PM43 °FScattered showers. Broken clouds.20 mph71%29.42 "HgN/A
2:20 PM45 °FScattered showers. Broken clouds.18 mph71%29.42 "HgN/A
1:50 PM45 °FScattered showers. Partly sunny.22 mph66%29.42 "HgN/A
1:20 PM45 °FScattered showers. Broken clouds.23 mph66%29.42 "HgN/A
12:50 PM43 °FScattered showers. Broken clouds.13 mph81%29.42 "HgN/A
12:20 PM41 °FScattered showers. Broken clouds.6 mph81%29.42 "HgN/A
11:50 AM41 °FRain. Broken clouds.22 mph76%29.42 "HgN/A
11:20 AM43 °FScattered showers. Scattered clouds.17 mph71%29.42 "HgN/A
10:50 AM43 °FScattered showers. Partly sunny.20 mph71%29.39 "HgN/A
10:20 AM41 °FScattered showers. Cloudy.13 mph76%29.39 "HgN/A
9:50 AM41 °FScattered showers. Partly sunny.25 mph76%29.39 "HgN/A
9:20 AM45 °FRain. Partly sunny.31 mph66%29.36 "HgN/A
8:50 AM45 °FScattered showers. Partly cloudy.32 mph61%29.33 "HgN/A
8:20 AM45 °FScattered showers. Partly cloudy.31 mph66%29.30 "HgN/A
7:50 AM45 °FPassing clouds.32 mph66%29.30 "HgN/A
7:20 AM45 °FRain showers. Passing clouds.35 mph71%29.27 "HgN/A
6:50 AM45 °FScattered showers. Partly cloudy.32 mph66%29.27 "HgN/A
6:20 AM45 °FScattered showers. Passing clouds.31 mph66%29.24 "HgN/A
5:50 AM43 °FScattered showers. Passing clouds.32 mph71%29.24 "HgN/A
5:20 AM45 °FRain showers. Partly cloudy.32 mph61%29.21 "Hg6 mi
3:50 AM45 °FRain showers. Partly cloudy.37 mph66%29.15 "Hg6 mi
2:50 AM43 °FRain showers. Partly cloudy.39 mph76%29.09 "Hg6 mi
1:50 AM45 °FRain showers. Partly cloudy.30 mph76%29.03 "Hg6 mi
Weather by CustomWeather, © 2015

See weather overviewHow to use our weather pages